| time (UTC) | temp F | wind direction | speed knots | gust knots | rain 1hr in | rain 24hr in | rain mn in | humidity % | barometer mb |
| 20260504001526 | 54 | 175 | 0.0 | 2.6 | 0.00 | 0.00 | 0.00 | 48 | 1011.8 |
| 20260504001022 | 54 | 202 | 2.6 | 4.3 | 0.00 | 0.00 | 0.00 | 49 | 1011.6 |
| 20260504000519 | 54 | 186 | 0.9 | 2.6 | 0.00 | 0.00 | 0.00 | 49 | 1011.7 |
| 20260504000017 | 54 | 202 | 1.7 | 4.3 | 0.00 | 0.00 | 0.00 | 47 | 1011.6 |
| 20260503235515 | 54 | 184 | 0.9 | 7.0 | 0.00 | 0.00 | 0.00 | 46 | 1011.7 |
| 20260503235011 | 55 | 201 | 3.5 | 7.0 | 0.00 | 0.00 | 0.00 | 47 | 1011.6 |
| 20260503234509 | 55 | 214 | 2.6 | 4.3 | 0.00 | 0.00 | 0.00 | 46 | 1011.8 |
| 20260503234007 | 55 | 205 | 3.5 | 4.3 | 0.00 | 0.00 | 0.00 | 49 | 1011.7 |
| 20260503233503 | 55 | 216 | 1.7 | 4.3 | 0.00 | 0.00 | 0.00 | 46 | 1011.7 |
| 20260503232959 | 55 | 274 | 1.7 | 4.3 | 0.00 | 0.00 | 0.00 | 45 | 1011.6 |
| 20260503232456 | 55 | 198 | 3.5 | 5.2 | 0.00 | 0.00 | 0.00 | 47 | 1011.6 |
| 20260503231954 | 55 | 195 | 4.3 | 5.2 | 0.00 | 0.00 | 0.00 | 45 | 1011.6 |
| 20260503231451 | 55 | 197 | 0.9 | 2.6 | 0.00 | 0.00 | 0.00 | 46 | 1011.6 |
| 20260503230948 | 55 | 241 | 2.6 | 4.3 | 0.00 | 0.00 | 0.00 | 45 | 1011.7 |
| 20260503230444 | 55 | 190 | 3.5 | 5.2 | 0.00 | 0.00 | 0.00 | 45 | 1011.6 |
| 20260503225942 | 55 | 191 | 3.5 | 7.8 | 0.00 | 0.00 | 0.00 | 44 | 1011.7 |
| 20260503225439 | 56 | 230 | 5.2 | 7.8 | 0.00 | 0.00 | 0.00 | 43 | 1011.8 |
| 20260503224934 | 56 | 244 | 1.7 | 2.6 | 0.00 | 0.00 | 0.00 | 46 | 1011.8 |
| 20260503224431 | 56 | 150 | 0.0 | 4.3 | 0.00 | 0.00 | 0.00 | 45 | 1011.7 |
| 20260503223929 | 56 | 185 | 2.6 | 5.2 | 0.00 | 0.00 | 0.00 | 45 | 1011.8 |
| 20260503223427 | 56 | 200 | 2.6 | 4.3 | 0.00 | 0.00 | 0.00 | 45 | 1011.8 |
| 20260503222922 | 56 | 198 | 1.7 | 7.0 | 0.00 | 0.00 | 0.00 | 43 | 1011.7 |
| 20260503222421 | 56 | 173 | 0.9 | 5.2 | 0.00 | 0.00 | 0.00 | 43 | 1011.7 |
| 20260503221919 | 56 | 169 | 1.7 | 7.0 | 0.00 | 0.00 | 0.00 | 42 | 1011.8 |
| 20260503221417 | 57 | 289 | 1.7 | 4.3 | 0.00 | 0.00 | 0.00 | 45 | 1011.8 |
| 20260503220913 | 57 | 182 | 2.6 | 4.3 | 0.00 | 0.00 | 0.00 | 44 | 1011.6 |
| 20260503220410 | 58 | 156 | 0.9 | 5.2 | 0.00 | 0.00 | 0.00 | 42 | 1011.6 |
| 20260503215907 | 57 | 199 | 3.5 | 5.2 | 0.00 | 0.00 | 0.00 | 41 | 1011.5 |
| 20260503215404 | 57 | 222 | 3.5 | 5.2 | 0.00 | 0.00 | 0.00 | 42 | 1011.6 |
| 20260503214901 | 58 | 220 | 2.6 | 4.3 | 0.00 | 0.00 | 0.00 | 42 | 1011.7 |
| 20260503214359 | 58 | 235 | 3.5 | 7.0 | 0.00 | 0.00 | 0.00 | 40 | 1011.4 |
| 20260503213856 | 57 | 214 | 0.9 | 4.3 | 0.00 | 0.00 | 0.00 | 43 | 1011.6 |
| 20260503213354 | 58 | 320 | 4.3 | 7.8 | 0.00 | 0.00 | 0.00 | 40 | 1011.7 |
| 20260503212850 | 57 | 206 | 1.7 | 2.6 | 0.00 | 0.00 | 0.00 | 43 | 1011.4 |
| 20260503212348 | 58 | 326 | 1.7 | 4.3 | 0.00 | 0.00 | 0.00 | 42 | 1011.5 |
| 20260503211845 | 58 | 215 | 3.5 | 5.2 | 0.00 | 0.00 | 0.00 | 41 | 1011.3 |
| 20260503211342 | 57 | 202 | 1.7 | 4.3 | 0.00 | 0.00 | 0.00 | 42 | 1011.4 |
| 20260503210837 | 57 | 207 | 3.5 | 7.8 | 0.00 | 0.00 | 0.00 | 40 | 1011.4 |
| 20260503210334 | 58 | 219 | 1.7 | 2.6 | 0.00 | 0.00 | 0.00 | 40 | 1011.5 |
| 20260503205829 | 59 | 206 | 5.2 | 12.2 | 0.00 | 0.00 | 0.00 | 39 | 1011.4 |
| 20260503205326 | 58 | 139 | 2.6 | 7.0 | 0.00 | 0.00 | 0.00 | 42 | 1011.4 |
| 20260503204822 | 57 | 203 | 1.7 | 2.6 | 0.00 | 0.00 | 0.00 | 42 | 1011.6 |
| 20260503204320 | 58 | 302 | 1.7 | 5.2 | 0.00 | 0.00 | 0.00 | 41 | 1011.5 |
| 20260503203817 | 57 | 291 | 3.5 | 7.0 | 0.00 | 0.00 | 0.00 | 43 | 1011.6 |
| 20260503203315 | 57 | 208 | 1.7 | 5.2 | 0.00 | 0.00 | 0.00 | 44 | 1011.8 |
| 20260503202811 | 57 | 245 | 1.7 | 4.3 | 0.00 | 0.00 | 0.00 | 45 | 1011.9 |
| 20260503202309 | 58 | 214 | 3.5 | 4.3 | 0.00 | 0.00 | 0.00 | 44 | 1011.9 |
| 20260503201807 | 57 | 204 | 5.2 | 7.0 | 0.00 | 0.00 | 0.00 | 45 | 1012.1 |
| 20260503201304 | 58 | 210 | 1.7 | 5.2 | 0.00 | 0.00 | 0.00 | 44 | 1012.1 |
| 20260503200801 | 60 | 162 | 1.7 | 2.6 | 0.00 | 0.00 | 0.00 | 39 | 1012.3 |
| 20260503200257 | 59 | 197 | 2.6 | 5.2 | 0.00 | 0.00 | 0.00 | 41 | 1012.4 |
| 20260503195755 | 58 | 200 | 1.7 | 5.2 | 0.00 | 0.00 | 0.00 | 41 | 1012.5 |
| 20260503195251 | 58 | 229 | 1.7 | 4.3 | 0.00 | 0.00 | 0.00 | 44 | 1012.4 |
| 20260503194749 | 60 | 205 | 1.7 | 4.3 | 0.00 | 0.00 | 0.00 | 43 | 1012.6 |
| 20260503194244 | 60 | 202 | 1.7 | 5.2 | 0.00 | 0.00 | 0.00 | 44 | 1012.6 |
| 20260503193741 | 58 | 194 | 3.5 | 4.3 | 0.00 | 0.00 | 0.00 | 43 | 1012.6 |
| 20260503193237 | 59 | 242 | 2.6 | 7.8 | 0.00 | 0.00 | 0.00 | 39 | 1012.6 |
| 20260503192732 | 57 | 222 | 2.6 | 7.0 | 0.00 | 0.00 | 0.00 | 42 | 1012.8 |
| 20260503192228 | 56 | 247 | 2.6 | 4.3 | 0.00 | 0.00 | 0.00 | 45 | 1012.8 |
| 20260503191725 | 57 | 200 | 2.6 | 9.6 | 0.00 | 0.00 | 0.00 | 42 | 1012.9 |
| 20260503191222 | 56 | 201 | 3.5 | 7.8 | 0.00 | 0.00 | 0.00 | 43 | 1013.0 |
| 20260503190719 | 56 | 312 | 1.7 | 7.0 | 0.00 | 0.00 | 0.00 | 43 | 1013.0 |
| 20260503190215 | 58 | 241 | 1.7 | 4.3 | 0.00 | 0.00 | 0.00 | 44 | 1013.0 |
| 20260503185713 | 58 | 235 | 5.2 | 9.6 | 0.00 | 0.00 | 0.00 | 41 | 1013.1 |
| 20260503185208 | 57 | 203 | 3.5 | 7.8 | 0.00 | 0.00 | 0.00 | 43 | 1013.2 |
| 20260503184703 | 57 | 209 | 3.5 | 4.3 | 0.00 | 0.00 | 0.00 | 43 | 1013.3 |
| 20260503184200 | 57 | 341 | 6.1 | 7.8 | 0.00 | 0.00 | 0.00 | 43 | 1013.5 |
| 20260503183656 | 56 | 213 | 1.7 | 9.6 | 0.00 | 0.00 | 0.00 | 44 | 1013.4 |
| 20260503183153 | 56 | 231 | 5.2 | 7.8 | 0.00 | 0.00 | 0.00 | 44 | 1013.4 |
| 20260503182651 | 54 | 215 | 6.1 | 9.6 | 0.00 | 0.00 | 0.00 | 45 | 1013.5 |
| 20260503182150 | 55 | 232 | 1.7 | 4.3 | 0.00 | 0.00 | 0.00 | 45 | 1013.4 |
| 20260503181646 | 55 | 218 | 1.7 | 5.2 | 0.00 | 0.00 | 0.00 | 45 | 1013.7 |
| 20260503181143 | 56 | 261 | 2.6 | 4.3 | 0.00 | 0.00 | 0.00 | 46 | 1013.6 |
| 20260503180640 | 55 | 159 | 1.7 | 4.3 | 0.00 | 0.00 | 0.00 | 45 | 1013.6 |
| 20260503180138 | 56 | 173 | 3.5 | 5.2 | 0.00 | 0.00 | 0.00 | 42 | 1013.8 |
| 20260503175634 | 55 | 188 | 2.6 | 7.8 | 0.00 | 0.00 | 0.00 | 43 | 1013.8 |
| 20260503175132 | 55 | 53 | 6.1 | 9.6 | 0.00 | 0.00 | 0.00 | 43 | 1013.7 |
| 20260503174628 | 54 | 206 | 3.5 | 5.2 | 0.00 | 0.00 | 0.00 | 45 | 1013.9 |
| 20260503174125 | 54 | 222 | 5.2 | 9.6 | 0.00 | 0.00 | 0.00 | 46 | 1013.9 |
| 20260503173620 | 55 | 221 | 4.3 | 7.0 | 0.00 | 0.00 | 0.00 | 44 | 1013.9 |
| 20260503173117 | 55 | 268 | 1.7 | 7.0 | 0.00 | 0.00 | 0.00 | 44 | 1014.0 |
| 20260503172614 | 56 | 219 | 5.2 | 9.6 | 0.00 | 0.00 | 0.00 | 44 | 1014.0 |
| 20260503172111 | 56 | 277 | 2.6 | 7.8 | 0.00 | 0.00 | 0.00 | 44 | 1014.0 |
| 20260503171608 | 55 | 233 | 3.5 | 5.2 | 0.00 | 0.00 | 0.00 | 44 | 1014.1 |
| 20260503171105 | 56 | 202 | 5.2 | 7.8 | 0.00 | 0.00 | 0.00 | 40 | 1014.2 |
| 20260503170556 | 55 | 200 | 2.6 | 5.2 | 0.00 | 0.00 | 0.00 | 41 | 1014.3 |
| 20260503150948 | 50 | 221 | 5.2 | 7.0 | 0.00 | 0.00 | 0.00 | 45 | 1015.3 |
| 20260503150444 | 50 | 105 | 6.1 | 7.0 | 0.00 | 0.00 | 0.00 | 46 | 1015.3 |
| 20260503131331 | 41 | 176 | 0.0 | 2.6 | 0.00 | 0.00 | 0.00 | 70 | 1016.0 |
| 20260503130829 | 41 | 190 | 0.9 | 5.2 | 0.00 | 0.00 | 0.00 | 72 | 1015.7 |
| 20260503130326 | 40 | 208 | 1.7 | 2.6 | 0.00 | 0.00 | 0.00 | 73 | 1015.8 |
| 20260503110720 | 33 | 150 | 0.0 | 0.0 | 0.00 | 0.00 | 0.00 | 92 | 1015.2 |
| 20260503110217 | 33 | 150 | 0.0 | 0.0 | 0.00 | 0.00 | 0.00 | 96 | 1015.1 |
| 20260503100144 | 30 | 149 | 0.0 | 0.0 | 0.00 | 0.00 | 0.00 | 97 | 1014.8 |
| 20260503081538 | 29 | 149 | 0.0 | 0.0 | 0.00 | 0.00 | 0.00 | 97 | 1014.7 |
| 20260503081036 | 29 | 148 | 0.0 | 0.0 | 0.00 | 0.00 | 0.00 | 97 | 1014.7 |
| 20260503080532 | 29 | 150 | 0.0 | 0.0 | 0.00 | 0.00 | 0.00 | 96 | 1014.7 |
| 20260503072505 | 30 | 152 | 0.0 | 0.0 | 0.00 | 0.00 | 0.00 | 96 | 1014.7 |
| 20260503072003 | 30 | 152 | 0.0 | 0.0 | 0.00 | 0.00 | 0.00 | 96 | 1014.7 |
| 20260503071500 | 30 | 153 | 0.0 | 0.0 | 0.00 | 0.00 | 0.00 | 95 | 1014.7 |
| 20260503070955 | 30 | 153 | 0.0 | 0.0 | 0.00 | 0.00 | 0.00 | 95 | 1014.6 |
| 20260503070453 | 30 | 151 | 0.0 | 0.0 | 0.00 | 0.00 | 0.00 | 95 | 1014.6 |
| 20260503054906 | 32 | 172 | 0.0 | 0.0 | 0.00 | 0.00 | 0.00 | 90 | 1014.9 |
| 20260503054402 | 32 | 172 | 0.0 | 0.0 | 0.00 | 0.00 | 0.00 | 90 | 1015.1 |
| 20260503053900 | 32 | 172 | 0.0 | 0.0 | 0.00 | 0.00 | 0.00 | 89 | 1015.2 |
| 20260503053358 | 32 | 172 | 0.0 | 0.0 | 0.00 | 0.00 | 0.00 | 88 | 1015.2 |
| 20260503052853 | 33 | 172 | 0.0 | 0.0 | 0.00 | 0.00 | 0.00 | 87 | 1015.2 |
| 20260503052351 | 33 | 173 | 0.0 | 0.0 | 0.00 | 0.00 | 0.00 | 87 | 1015.3 |
| 20260503051847 | 33 | 173 | 0.0 | 0.0 | 0.00 | 0.00 | 0.00 | 85 | 1015.2 |
| 20260503051343 | 34 | 173 | 0.0 | 0.0 | 0.00 | 0.00 | 0.00 | 84 | 1015.1 |
| 20260503050840 | 34 | 173 | 0.0 | 0.0 | 0.00 | 0.00 | 0.00 | 84 | 1015.2 |
| 20260503050336 | 34 | 173 | 0.0 | 0.0 | 0.00 | 0.00 | 0.00 | 84 | 1015.3 |
| 20260503045834 | 34 | 173 | 0.0 | 0.0 | 0.00 | 0.00 | 0.00 | 83 | 1015.3 |
| 20260503045332 | 34 | 173 | 0.0 | 0.0 | 0.00 | 0.00 | 0.00 | 83 | 1015.4 |
| 20260503044828 | 35 | 173 | 0.0 | 0.0 | 0.00 | 0.00 | 0.00 | 83 | 1015.4 |
| 20260503044325 | 35 | 173 | 0.0 | 0.0 | 0.00 | 0.00 | 0.00 | 83 | 1015.3 |
| 20260503043822 | 35 | 173 | 0.0 | 0.0 | 0.00 | 0.00 | 0.00 | 82 | 1015.4 |
| 20260503043319 | 36 | 173 | 0.0 | 0.0 | 0.00 | 0.00 | 0.00 | 82 | 1015.3 |
| 20260503042815 | 36 | 173 | 0.0 | 0.0 | 0.00 | 0.00 | 0.00 | 81 | 1015.4 |
| 20260503042312 | 36 | 173 | 0.0 | 0.0 | 0.00 | 0.00 | 0.00 | 81 | 1015.3 |
| 20260503041808 | 36 | 173 | 0.0 | 0.0 | 0.00 | 0.00 | 0.00 | 82 | 1015.3 |
| 20260503041306 | 36 | 174 | 0.0 | 0.0 | 0.00 | 0.00 | 0.00 | 83 | 1015.3 |
| 20260503040803 | 36 | 173 | 0.0 | 0.0 | 0.00 | 0.00 | 0.00 | 83 | 1015.4 |
| 20260503040301 | 36 | 174 | 0.0 | 0.0 | 0.00 | 0.00 | 0.00 | 83 | 1015.4 |
| 20260503035757 | 36 | 174 | 0.0 | 0.0 | 0.00 | 0.06 | 0.06 | 81 | 1015.4 |
| 20260503035255 | 36 | 174 | 0.0 | 0.0 | 0.00 | 0.06 | 0.06 | 81 | 1015.4 |
| 20260503034752 | 36 | 174 | 0.0 | 0.0 | 0.00 | 0.06 | 0.06 | 82 | 1015.4 |
| 20260503034249 | 36 | 173 | 0.0 | 0.0 | 0.00 | 0.06 | 0.06 | 82 | 1015.5 |
| 20260503033746 | 36 | 174 | 0.0 | 0.0 | 0.00 | 0.06 | 0.06 | 83 | 1015.5 |
| 20260503033244 | 36 | 174 | 0.0 | 0.0 | 0.00 | 0.06 | 0.06 | 83 | 1015.3 |
| 20260503032742 | 36 | 174 | 0.0 | 0.0 | 0.00 | 0.06 | 0.06 | 83 | 1015.5 |
| 20260503032240 | 36 | 174 | 0.0 | 0.0 | 0.00 | 0.06 | 0.06 | 82 | 1015.5 |
| 20260503031737 | 36 | 174 | 0.0 | 0.0 | 0.00 | 0.06 | 0.06 | 82 | 1015.7 |
| 20260503031235 | 36 | 174 | 0.0 | 0.0 | 0.00 | 0.06 | 0.06 | 80 | 1015.5 |
| 20260503030731 | 36 | 174 | 0.0 | 0.0 | 0.00 | 0.06 | 0.06 | 79 | 1015.4 |
| 20260503030227 | 36 | 174 | 0.0 | 0.0 | 0.00 | 0.06 | 0.06 | 79 | 1015.6 |
| 20260503025724 | 37 | 174 | 0.0 | 0.0 | 0.00 | 0.06 | 0.06 | 78 | 1015.6 |
| 20260503025222 | 37 | 174 | 0.0 | 0.0 | 0.00 | 0.06 | 0.06 | 78 | 1015.5 |
| 20260503024718 | 37 | 174 | 0.0 | 0.0 | 0.00 | 0.06 | 0.06 | 79 | 1015.5 |
| 20260503024216 | 37 | 174 | 0.0 | 0.0 | 0.00 | 0.06 | 0.06 | 80 | 1015.7 |
| 20260503023712 | 37 | 174 | 0.0 | 0.0 | 0.00 | 0.06 | 0.06 | 78 | 1015.9 |
| 20260503023204 | 37 | 174 | 0.0 | 0.0 | 0.00 | 0.06 | 0.06 | 77 | 1015.9 |
| 20260503022700 | 37 | 167 | 0.0 | 0.0 | 0.00 | 0.06 | 0.06 | 77 | 1015.7 |
| 20260503022159 | 37 | 167 | 0.0 | 0.0 | 0.00 | 0.06 | 0.06 | 75 | 1015.9 |
| 20260503021657 | 37 | 167 | 0.0 | 0.0 | 0.00 | 0.06 | 0.06 | 77 | 1015.9 |
| 20260503021153 | 37 | 149 | 0.0 | 0.0 | 0.00 | 0.06 | 0.06 | 77 | 1015.7 |
| 20260503020651 | 37 | 149 | 0.0 | 0.0 | 0.00 | 0.06 | 0.06 | 76 | 1015.9 |
| 20260503020148 | 37 | 149 | 0.0 | 0.0 | 0.00 | 0.06 | 0.06 | 75 | 1015.7 |
| 20260503015644 | 37 | 149 | 0.0 | 0.0 | 0.00 | 0.06 | 0.06 | 75 | 1015.7 |
| 20260503015142 | 37 | 149 | 0.0 | 0.0 | 0.00 | 0.06 | 0.06 | 76 | 1015.8 |
| 20260503014637 | 37 | 149 | 0.0 | 0.0 | 0.00 | 0.06 | 0.06 | 78 | 1015.7 |
| 20260503014135 | 37 | 149 | 0.0 | 0.0 | 0.00 | 0.06 | 0.06 | 76 | 1015.6 |
| 20260503013632 | 37 | 149 | 0.0 | 0.0 | 0.00 | 0.06 | 0.06 | 75 | 1015.7 |
| 20260503013130 | 37 | 149 | 0.0 | 0.0 | 0.00 | 0.06 | 0.06 | 74 | 1015.6 |
| 20260503012627 | 37 | 149 | 0.0 | 0.0 | 0.00 | 0.06 | 0.06 | 75 | 1015.7 |
| 20260503012124 | 37 | 149 | 0.0 | 0.0 | 0.00 | 0.06 | 0.06 | 74 | 1015.7 |
| 20260503011621 | 37 | 147 | 0.0 | 0.0 | 0.00 | 0.06 | 0.06 | 74 | 1015.4 |
| 20260503011118 | 37 | 173 | 0.0 | 0.0 | 0.00 | 0.06 | 0.06 | 72 | 1015.7 |
| 20260503010614 | 37 | 174 | 0.0 | 0.0 | 0.00 | 0.06 | 0.06 | 72 | 1015.5 |
| 20260503010112 | 38 | 174 | 0.0 | 0.0 | 0.00 | 0.06 | 0.06 | 73 | 1015.5 |
| 20260503005608 | 38 | 174 | 0.0 | 0.0 | 0.00 | 0.06 | 0.06 | 72 | 1015.6 |
| 20260503005106 | 38 | 154 | 0.0 | 1.7 | 0.00 | 0.06 | 0.06 | 71 | 1015.5 |
| 20260503004601 | 38 | 135 | 0.0 | 0.0 | 0.00 | 0.06 | 0.06 | 70 | 1015.4 |
| 20260503004100 | 38 | 134 | 0.0 | 0.0 | 0.00 | 0.06 | 0.06 | 71 | 1015.5 |
| 20260503003556 | 38 | 134 | 0.0 | 0.0 | 0.00 | 0.06 | 0.06 | 71 | 1015.5 |
| 20260503003053 | 38 | 134 | 0.0 | 0.0 | 0.00 | 0.06 | 0.06 | 71 | 1015.3 |
| 20260503002550 | 38 | 181 | 0.0 | 0.0 | 0.00 | 0.06 | 0.06 | 70 | 1015.6 |
| 20260503002047 | 39 | 193 | 0.0 | 0.0 | 0.00 | 0.06 | 0.06 | 72 | 1015.3 |